Home > Weather > Boké > Past weeks

Flag for Guinea Past Weather in Boké, Guinea — Yesterday and Last 2 Weeks

Now
79 °F

Thunderstorms. Partly sunny.


Feels Like: 83 °F
Forecast: 74 / 90 °F
Wind: 7 mph from North

Location: Conakry / Gbessia

Current Time: Jul 1, 2016 at 10:01:24 AM

Latest Report: Jul 1, 2016 at 9:00 AM


Visibility: N/A

Pressure: 29.98 "Hg

Humidity: 100%

Dew Point: 79 °F

Location of BokéLocation

Past Weather in Boké — Graph

°F

Boké Temperature Yesterday

Maximum temperature yesterday: 82 °F (at 12:00 PM)
Minimum temperature yesterday: 75 °F (at 6:00 AM)
Average temperature yesterday: 80 °F

High & Low Weather Summary for the Past Weeks

 TemperatureHumidityPressure
High86 °F (Jun 21, 1:00 PM)100% (Jun 17, 10:00 AM)30.04 "Hg (Jun 17, 10:00 AM)
Low72 °F (Jun 17, 10:00 AM)74% (Jun 25, 2:00 PM)29.86 "Hg (Jun 21, 4:00 PM)
Average79 °F90%29.95 "Hg
* Reported Jun 17 9:00 AM — Jul 1 8:00 AM, Boké, Weather by CustomWeather, © 2016

Note: Actual official high and low records may vary slightly from our data, if they occured in-between our weather recording intervals... More about our weather records

Advertising

Boké Weather History for the Previous 24 Hours

Scroll right to see more
 ConditionsComfort  
Time TempWeatherWind HumidityBarometerVisibility
8:00 AM
Fri, Jul 1
75 °FThunderstorms. Partly sunny.No wind100%29.98 "HgN/A
7:00 AM75 °FThunderstorms. Partly sunny.2 mph100%29.98 "Hg5 mi
6:00 AM72 °FThunderstorms. Mostly cloudy.5 mph100%29.92 "Hg5 mi
5:00 AM72 °FMostly cloudy.5 mph100%29.92 "Hg5 mi
3:00 AM79 °FPassing clouds.5 mph89%29.95 "HgN/A
2:00 AM79 °FPassing clouds.5 mph89%29.98 "HgN/A
1:00 AM79 °FPassing clouds.5 mph89%29.98 "HgN/A
12:00 AM79 °FPassing clouds.5 mph89%29.98 "HgN/A
11:00 PM
Thu, Jun 30
81 °FPartly cloudy.9 mph84%30.01 "HgN/A
10:00 PM81 °FPartly cloudy.9 mph84%29.98 "HgN/A
9:00 PM81 °FPartly cloudy.9 mph84%29.98 "HgN/A
8:00 PM82 °FPartly cloudy.9 mph79%29.98 "HgN/A
7:00 PM81 °FPartly sunny.9 mph84%29.98 "HgN/A
6:00 PM82 °FBroken clouds.9 mph84%29.95 "HgN/A
5:00 PM82 °FPartly sunny.9 mph79%29.92 "HgN/A
4:00 PM82 °FPartly sunny.12 mph84%29.92 "HgN/A
2:00 PM82 °FPartly sunny.12 mph84%29.98 "HgN/A
12:00 PM82 °FPartly sunny.7 mph89%30.01 "HgN/A
Weather by CustomWeather, © 2016

See weather overviewHow to use our weather pages